Location: Sternwarte ZA, Rosenfeld-Brittheim
(48.2889°N, 8.6789°E)
Time: 03:52:47
(UTC+02:00)

ISS - Pass Details

Date: 24 May 2017
Orbit: 401 x 408 km, 51.6° (Epoch: 25 June)

Event Time Altitude Azimuth Distance (km) Brightness Sun altitude
Rises 23:23:09 0° 242° (WSW) 2,332 0.0 -15.8°
Reaches altitude 10° 23:25:14 10° 241° (WSW) 1,473 -1.0 -16.0°
Maximum altitude 23:28:32 78° 155° (SSE) 424 -4.0 -16.3°
Drops below altitude 10° 23:31:50 10° 69° (ENE) 1,475 -1.1 -16.5°
Sets 23:33:56 0° 68° (ENE) 2,337 0.0 -16.7°
